THORAD DELTA 1 DEB, 42613

Orbit data source: Space-Track

THORAD DELTA 1 DEB, 42613 is space debris in SSO originally from a launch on Fri, 15 Nov 1974 UTC launched from the Air Force Western Test Range (AFWTR). Debris objects in space refer to the collection of defunct objects orbiting the Earth. Examples of debris include non-operational satellites, rocket bodies, and fragments generated from explosions, collisions, or faulty payload assembly.

Loading next visibility...
Identifier
42613, 1974-089GE
Orbit
SSO
Country
Flag of USUS
Related business
Manufacturer
Unknown
Mission
Spacecraft
Bus & Motor
Unknown
Mass
Unknown
Launch date (UTC)
1974-11-15 (51 years ago)
Launch vehicle
Unknown
Launch site
Air Force Western Test Range (AFWTR)
Object type
Payload
Rocket body
Debris
Shape & HBR
Unknown shape, 0.1 m
Radar Cross Section
Small (<0.1 m²)

Expand to show TLE details & history
Last TLE update: 6 days ago

TLE from 6 days ago
0 THORAD DELTA 1 DEB
1 42613U 74089GE  25336.84971362 -.00000022  00000-0  17516-3 0  9991
2 42613 102.2569 337.9788 0067192 187.2966 293.6859 12.43772706547010
Epoch: 2025-12-02T20:23Z
TLE epoch observation values (Epoch: 2025-12-02T20:23:35.256Z)
Latitude
57.65107°
Longitude
160.11025°
Altitude
1,479.184 km
Speed
7.139 km/s
True Right ascension
11h 51m 44s
True Declination
57° 30' 35"
Sunlit
Object was in daylight at epoch
Visualization orbit readout
Latitude
Unknown
Longitude
Unknown
Altitude
Unknown
Speed
Unknown
Apparent Right ascension
Unknown
Apparent Declination
Unknown
Sunlit
N/A
Visualization observer readout
Local Sidereal Time
15:21:15
Azimuth
Unknown
Elevation
Unknown
Doppler factor
Unknown
Orbital elements
Apogee altitude
1,541.092 km
Perigee altitude
1,435.38 km
Semi-major axis
7,866.373 km
Eccentricity
0.00672
Inclination
102.2569°
RAAN
337.9788°
Arg. of periapsis
187.2966°
True anomaly
292.97843°
Mean anomaly
293.6859°
Eccentric anomaly
293.3324°
Mean motion
3.11087 °/min
Orbital period
115.72 mins
BSTAR
0.00017516
Loading maneuver chart data...
Computing Atmospheric mass density...

Documentation

Showing up to 5 results
|